Погода в Хисаре

Индия     29°08′58″N   75°43′10″E
темп.,
°C
ветер,
м/с
пор.,
м/с
влажн.,
%
обл.,
%
осадки,
мм/ч
давл.,
гПа
погр.,
м
22 апреля, чт
чт2223:30+23з11411 1.4 101011
02:30+22ссз11500 0.0 101013
05:30+20в34600 0.0 101066
08:30+25в34452 0.0 1012562
11:30+31ююв322498 0.0 10111977
14:30+33ююв23170 0.0 10083036
17:30+34зюз34171 0.0 10063291
20:30+30вюв33213 0.0 100725
23 апреля, пт
пт2323:30+29вюв5122376 0.0 1007276
02:30+26в5112961 0.0 1006302
05:30+23вюв714390 0.1 1007382
08:30+28юв814282 0.0 1007777
11:30+34ююв58209 3.9 10071943
14:30+37юз58155 0.3 10033104
17:30+37зюз69140 0.3 10013887
20:30+27с913360 0.1 1005637
24 апреля, сб
сб2423:30+24с69490 0.1 1007325
02:30+23с37500 0.0 1007241
05:30+21с37530 0.0 1008204
08:30+25с45380 0.0 1010565
11:30+32сз45180 0.0 10101762
14:30+34сз57140 0.0 10082578
17:30+34сз68130 0.0 10073111
20:30+30ссз37170 0.0 1009140
25 апреля, вс
вс2523:30+26с22300 0.0 101038
02:30+25зсз22310 0.0 100922
05:30+23ссз35350 0.0 100985
08:30+29сз46240 0.0 1010407
11:30+35сз56110 0.0 10102033
14:30+38ссз4480 0.0 10073108
17:30+38сз4470 0.0 10052922
20:30+32сз3490 0.0 100747
26 апреля, пн
пн2623:30+30сз33100 0.0 100819
02:30+28ссз33130 0.0 100628
05:30+27с22150 0.0 100615
08:30+33ссз34120 0.0 1008291
11:30+39сз4770 0.0 10072351
14:30+41сз5670 0.0 10044307
17:30+40сз5660 0.0 10024364
20:30+35зсз46100 0.0 100476